Location: A�t �Alizem
(31.2076°N, 8.7872°W)
Time: 15:53:53
(UTC+00:00)

NOSS 3-2 (A) - Pass Details

Date: 27 November 2020
Orbit: 789 x 1419 km, 63.4° (Epoch: 22 January)

Event Time Altitude Azimuth Distance (km) Brightness Sun altitude
Rises 19:38:24 0° 216° (SW) 3,277 6.9 -26.5°
Reaches altitude 10° 19:40:45 10° 219° (SW) 2,373 6.1 -27.0°
Maximum altitude 19:46:06 65° 301° (WNW) 931 3.4 -28.1°
Enters shadow 19:47:11 54° 351° (N) 1,044 3.5 -28.3°
